Bluffton, MN

12:29 AM CST on January 20, 2017 (GMT -0600)
Wadena Municipal

Weather History for KADC - November, 2012

Change the Weather History Date:

Monday, November 5, 2012

  Actual Average Record
Temperature  
Mean Temperature 32 °F -  
Max Temperature 33 °F 41 °F 71 °F (2001)
Min Temperature 30 °F 23 °F -7 °F (1951)
Degree Days  
Heating Degree Days 34    
Moisture  
Dew Point 28 °F    
Average Humidity 84    
Maximum Humidity 100    
Minimum Humidity 70    
Precipitation  
Precipitation 0.15 in - - ()
Sea Level Pressure  
Sea Level Pressure 30.07 in    
Wind  
Wind Speed 6 mph (SE)    
Max Wind Speed 10 mph    
Max Gust Speed -    
Visibility 8 miles    
Events Rain , Snow    
Averages and records for this station are not official NWS values.
T = Trace of Precipitation, MM = Missing Value Source: NWS Daily Summary

Daily Weather History Graph

Daily Weather History Graph

Search for Another Location

Airport or City:

Trip Planner

Search our weather history database for the weather conditions in past years. The results will help you decide how hot, cold, wet, or windy it might be!

Date:

Astronomy

Nov. 05, 2012 Rise Set
Actual Time 7:08 AM CST 4:59 PM CST
Civil Twilight 6:37 AM CST 5:31 PM CST
Nautical Twilight 6:01 AM CST 6:07 PM CST
Astronomical Twilight 5:25 AM CST 6:42 PM CST
Moon 10:38 PM CST (11/5) 12:29 PM CST (11/5)
Length of Visible Light 10h 54m
Length of Day
9h 50m
Waning Gibbous, 62% of the Moon is Illuminated
Nov 5
Waning Gibbous
Nov 6
Last Quarter
Nov 13
New
Nov 20
First Quarter
Nov 28
Full

Hourly Weather History & Observations

Time (CST) Temp. Windchill Dew Point Humidity Pressure Visibility Wind Dir Wind Speed Gust Speed Precip Events Conditions
12:15 AM 33.8 °F 27.7 °F 24.8 °F 70% 30.18 in 10.0 mi NE 6.9 mph - N/A   Overcast
12:34 AM 32.0 °F 26.4 °F 24.8 °F 75% 30.18 in 10.0 mi NE 5.8 mph - N/A   Overcast
12:53 AM 32.0 °F 26.4 °F 24.8 °F 75% 30.18 in 10.0 mi NE 5.8 mph - N/A   Overcast
1:15 AM 32.0 °F 25.6 °F 24.8 °F 75% 30.18 in 10.0 mi NE 6.9 mph - N/A   Overcast
1:35 AM 32.0 °F 26.4 °F 24.8 °F 75% 30.19 in 10.0 mi NE 5.8 mph - N/A   Overcast
1:53 AM 30.2 °F 24.3 °F 24.8 °F 80% 30.19 in 10.0 mi NE 5.8 mph - N/A   Overcast
2:15 AM 30.2 °F 24.3 °F 24.8 °F 80% 30.19 in 10.0 mi ENE 5.8 mph - N/A   Overcast
2:34 AM 30.2 °F 25.4 °F 24.8 °F 80% 30.19 in 10.0 mi ENE 4.6 mph - N/A   Overcast
2:53 AM 30.2 °F 25.4 °F 24.8 °F 80% 30.19 in 10.0 mi ENE 4.6 mph - N/A   Overcast
3:14 AM 30.2 °F 25.4 °F 24.8 °F 80% 30.19 in 10.0 mi ENE 4.6 mph - N/A   Overcast
3:35 AM 30.2 °F 24.3 °F 24.8 °F 80% 30.19 in 10.0 mi NE 5.8 mph - N/A   Overcast
3:53 AM 30.2 °F 24.3 °F 24.8 °F 80% 30.19 in 10.0 mi ENE 5.8 mph - N/A   Overcast
4:14 AM 30.2 °F 25.4 °F 24.8 °F 80% 30.19 in 10.0 mi NE 4.6 mph - N/A   Overcast
4:35 AM 30.2 °F 26.7 °F 24.8 °F 80% - 10.0 mi NE 3.5 mph - N/A   Overcast
4:52 AM 30.2 °F 25.4 °F 24.8 °F 80% - 10.0 mi NE 4.6 mph - N/A   Overcast
5:15 AM 30.2 °F 25.4 °F 24.8 °F 80% - 10.0 mi NE 4.6 mph - N/A   Overcast
5:35 AM 30.2 °F 25.4 °F 24.8 °F 80% 30.19 in 10.0 mi NE 4.6 mph - N/A   Overcast
5:52 AM 30.2 °F 25.4 °F 24.8 °F 80% 30.18 in 10.0 mi ENE 4.6 mph - N/A   Overcast
6:14 AM 30.2 °F 26.7 °F 24.8 °F 80% - 10.0 mi NE 3.5 mph - N/A   Overcast
6:35 AM 30.2 °F - 24.8 °F 80% 30.18 in 10.0 mi Calm Calm - N/A   Overcast
6:53 AM 30.2 °F 26.7 °F 24.8 °F 80% 30.18 in 10.0 mi ENE 3.5 mph - N/A   Overcast
7:14 AM 30.2 °F - 24.8 °F 80% 30.18 in 10.0 mi Calm Calm - N/A   Overcast
7:35 AM 30.2 °F 25.4 °F 24.8 °F 80% 30.17 in 10.0 mi East 4.6 mph - N/A   Overcast
7:53 AM 30.2 °F 26.7 °F 24.8 °F 80% 30.18 in 10.0 mi ENE 3.5 mph - N/A   Overcast
8:14 AM 30.2 °F 25.4 °F 24.8 °F 80% - 10.0 mi East 4.6 mph - N/A   Overcast
8:35 AM 30.2 °F 25.4 °F 24.8 °F 80% 30.17 in 10.0 mi East 4.6 mph - N/A   Overcast
8:53 AM 30.2 °F 24.3 °F 24.8 °F 80% 30.17 in 10.0 mi East 5.8 mph - N/A   Overcast
9:14 AM 30.2 °F 26.7 °F 24.8 °F 80% 30.17 in 10.0 mi East 3.5 mph - N/A   Overcast
9:35 AM 30.2 °F 24.3 °F 24.8 °F 80% 30.16 in 10.0 mi East 5.8 mph - N/A   Overcast
9:53 AM 30.2 °F 25.4 °F 26.6 °F 86% 30.17 in 10.0 mi ESE 4.6 mph - N/A   Overcast
10:14 AM 32.0 °F 27.5 °F 26.6 °F 80% 30.16 in 10.0 mi East 4.6 mph - N/A   Overcast
10:35 AM 32.0 °F 25.6 °F 26.6 °F 80% 30.16 in 10.0 mi ESE 6.9 mph - N/A   Overcast
10:53 AM 32.0 °F 26.4 °F 26.6 °F 80% 30.16 in 10.0 mi East 5.8 mph - N/A   Overcast
11:14 AM 33.8 °F 28.6 °F 26.6 °F 75% 30.15 in 10.0 mi ESE 5.8 mph - N/A   Overcast
11:35 AM 33.8 °F 27.7 °F 26.6 °F 75% 30.14 in 10.0 mi SE 6.9 mph - N/A   Overcast
11:53 AM 33.8 °F 30.8 °F 26.6 °F 75% 30.14 in 10.0 mi East 3.5 mph - N/A   Overcast
12:15 PM 33.8 °F 30.8 °F 28.4 °F 81% 30.14 in 10.0 mi ESE 3.5 mph - N/A   Overcast
12:35 PM 33.8 °F 30.8 °F 28.4 °F 81% 30.12 in 10.0 mi SE 3.5 mph - N/A   Overcast
12:53 PM 33.8 °F 30.8 °F 28.4 °F 81% 30.11 in 10.0 mi South 3.5 mph - N/A   Overcast
1:15 PM 33.8 °F 29.6 °F 28.4 °F 81% 30.09 in 10.0 mi SSE 4.6 mph - N/A   Overcast
1:35 PM 33.8 °F 28.6 °F 28.4 °F 81% 30.08 in 10.0 mi South 5.8 mph - N/A   Overcast
1:53 PM 33.8 °F 27.7 °F 28.4 °F 81% 30.07 in 7.0 mi SSE 6.9 mph - N/A   Overcast
2:15 PM 33.8 °F 27.7 °F 30.2 °F 87% 30.06 in 5.0 mi SSE 6.9 mph - N/A   Overcast
2:34 PM 33.8 °F 27.7 °F 30.2 °F 87% 30.05 in 10.0 mi South 6.9 mph - N/A   Overcast
2:53 PM 33.8 °F 27.0 °F 30.2 °F 87% 30.05 in 10.0 mi SSE 8.1 mph - N/A   Overcast
3:15 PM 33.8 °F 27.7 °F 30.2 °F 87% 30.04 in 7.0 mi South 6.9 mph - N/A   Overcast
3:34 PM 33.8 °F 27.7 °F 30.2 °F 87% 30.03 in 7.0 mi SSE 6.9 mph - N/A   Overcast
3:53 PM 33.8 °F 27.7 °F 30.2 °F 87% 30.03 in 10.0 mi South 6.9 mph - N/A   Overcast
4:15 PM 33.8 °F 27.7 °F 30.2 °F 87% 30.03 in 10.0 mi South 6.9 mph - N/A   Overcast
4:35 PM 33.8 °F 29.6 °F 30.2 °F 87% 30.02 in 10.0 mi South 4.6 mph - N/A   Overcast
4:53 PM 33.8 °F 28.6 °F 30.2 °F 87% 30.01 in 10.0 mi South 5.8 mph - N/A   Overcast
5:15 PM 33.8 °F 27.0 °F 30.2 °F 87% 30.00 in 10.0 mi South 8.1 mph - N/A   Overcast
5:34 PM 33.8 °F 28.6 °F 30.2 °F 87% 30.00 in 10.0 mi South 5.8 mph - N/A   Overcast
5:53 PM 33.8 °F 27.0 °F 30.2 °F 87% 29.99 in 10.0 mi South 8.1 mph - N/A   Overcast
6:15 PM 33.8 °F 27.7 °F 30.2 °F 87% 29.99 in 5.0 mi South 6.9 mph - N/A   Overcast
6:34 PM 33.8 °F 26.4 °F 30.2 °F 87% 29.98 in 1.8 mi South 9.2 mph - N/A   Overcast
6:53 PM 33.8 °F 26.4 °F 32.0 °F 93% 29.97 in 1.0 mi South 9.2 mph - N/A   Overcast
7:15 PM 33.8 °F 27.0 °F 32.0 °F 93% 29.96 in 1.0 mi South 8.1 mph - N/A   Overcast
7:35 PM 33.8 °F 26.4 °F 32.0 °F 93% 29.94 in 1.0 mi South 9.2 mph - N/A   Overcast
7:53 PM 33.8 °F 27.0 °F 32.0 °F 93% 29.93 in 2.5 mi South 8.1 mph - N/A   Overcast
8:14 PM 33.8 °F 27.0 °F 32.0 °F 93% 29.90 in 4.0 mi South 8.1 mph - N/A   Overcast
8:35 PM 33.8 °F 25.8 °F 32.0 °F 93% 29.90 in 5.0 mi South 10.4 mph - N/A   Overcast
8:53 PM 33.8 °F 25.8 °F 32.0 °F 93% 29.89 in 5.0 mi South 10.4 mph - N/A   Overcast
9:15 PM 33.8 °F 26.4 °F 32.0 °F 93% 29.89 in 4.0 mi SSW 9.2 mph - N/A   Drizzle
9:35 PM 33.8 °F 27.0 °F 30.2 °F 87% 29.89 in 3.0 mi South 8.1 mph - 0.01 in Rain Rain
9:53 PM 30.2 °F 21.9 °F 30.2 °F 100% 29.87 in 2.0 mi South 9.2 mph - 0.04 in Snow Light Snow
10:15 PM 30.2 °F 23.4 °F 28.4 °F 93% 29.86 in 1.0 mi South 6.9 mph - 0.03 in Snow Light Snow
10:35 PM 30.2 °F 24.3 °F 28.4 °F 93% 29.84 in 1.0 mi SSE 5.8 mph - 0.06 in Snow Light Snow
10:53 PM 30.2 °F 25.4 °F 28.4 °F 93% 29.84 in 2.0 mi SSW 4.6 mph - 0.09 in Snow Light Snow
11:15 PM 30.2 °F 21.3 °F 30.2 °F 100% 29.82 in 3.0 mi South 10.4 mph - 0.01 in Snow Light Snow
11:35 PM 30.2 °F 21.3 °F 30.2 °F 100% 29.81 in 1.5 mi South 10.4 mph - 0.02 in Snow Light Snow
11:38 PM 30.2 °F 21.3 °F 30.2 °F 100% 29.80 in 1.5 mi South 10.4 mph - 0.02 in Snow Light Snow